Accueil
METAR-TAF:

METAR-TAF

Aéroports :

Turin, Italie

latitude: 45-05-20N, longitude: 007-36-20E, altitude: 288 m

Observation

Le bulletin a été fait il y a 13 heures et 24 minutes, à 16:50 UTC
Vent 3 kt de ouest/nord-ouest, variant entre ouest/sud-ouest et nord
Température 21°C
Humidité 60%
Pression 1016 hPa
Visibilité 10 km ou plus
Nuages épars à une hauteur de 2500 ft, Cumulonimbus.

METAR: LIMA 231650Z 29003KT 240V350 9999 SCT025CB 21/13 Q1016 RETS

Heure: 08:14 (06:14 UTC)


TAF: absent

Observations et prévisions météorologiques de plus de 4000 aéroports (messages METAR et TAF).

Les stations disponibles sont représentées par des disques jaunes et rouges sur la carte.

Passer la souris dessus pour voir le nom de la station.

Cliquer dessus pour voir les observations et prévisions météorologiques.

Pour changer de carte: cliquez sur les boutons verts avec une croix noire pour zoomer, sur le bouton vert avec un tiret pour effectuer un zoom arrière, ou sur les flèches vertes pour les cartes adjacentes.


METAR-TAF: